[Iaude] MPEC U151: 2023 UE3 [a=1.48,e=0.33,i=2.5,H=28.4]

mpec at marsden.cfa.harvard.edu mpec at marsden.cfa.harvard.edu
Fri Oct 20 22:54:15 EDT 2023


M.P.E.C. 2023-U151                             Issued 2023 October 21, 02:52 UT

     The Minor Planet Electronic Circulars contain information on unusual
         minor planets, routine data on comets and natural satellites,
         and occasional editorial announcements.  They are published
    on behalf of Division F of the International Astronomical Union by the
          Minor Planet Center, Smithsonian Astrophysical Observatory,
                          Cambridge, MA 02138, U.S.A.
			  
             Prepared using the Tamkin Foundation Computer Network

                              MPC at CFA.HARVARD.EDU
            URL https://www.minorplanetcenter.net/    ISSN 1523-6714

                                    2023 UE3                                    


Observations:
     K23U03E*KC2023 10 19.83251 23 06 28.50 +34 26 48.2          19.5 GXEU151L51
     K23U03E KC2023 10 19.83361 23 06 31.90 +34 27 19.6          19.5 GXEU151L51
     K23U03E KC2023 10 19.83471 23 06 35.31 +34 27 50.6          19.3 GXEU151L51
     K23U03E KC2023 10 19.90607 23 10 24.05 +35 01 11.3          19.6 GXEU151L51
     K23U03E KC2023 10 19.90778 23 10 29.73 +35 01 58.9          19.5 GXEU151L51
     K23U03E KC2023 10 19.90948 23 10 35.42 +35 02 46.3          19.3 GXEU151L51
     K23U03E KC2023 10 20.07724223 22 54.556+36 29 28.93         19.02GVEU151I52
     K23U03E KC2023 10 20.07810423 22 57.792+36 29 56.76         19.46GVEU151I52
     K23U03E KC2023 10 20.07896523 23 00.996+36 30 25.02         19.10GVEU151I52
     K23U03E KC2023 10 20.07982123 23 04.117+36 30 53.10         19.29GVEU151I52
     K23U03E KC2023 10 20.14364 23 26 41.62 +37 03 49.7          19.4 VqEU151734
     K23U03E KC2023 10 20.14579823 27 03.78 +37 05 50.0          19.2 GXEU151858
     K23U03E KC2023 10 20.14707 23 26 54.51 +37 05 35.5          19.6 VqEU151734
     K23U03E KC2023 10 20.15039 23 27 07.02 +37 07 18.3          19.5 VqEU151734
     K23U03E KC2023 10 20.15045423 27 21.32 +37 08 16.8          19.3 GXEU151858
     K23U03E KC2023 10 20.15503923 27 38.62 +37 10 41.1          19.2 GXEU151858
     K23U03E  C2023 10 20.29098923 36 49.626+38 20 11.89         19.2 GVEU151654
     K23U03E  C2023 10 20.29299423 36 57.915+38 21 11.08         19.2 GVEU151654
     K23U03E KC2023 10 20.92307700 36 30.427+43 25 00.62         18.7 GVEU151J95
     K23U03E KC2023 10 20.92488100 36 41.683+43 25 48.29         18.8 GVEU151J95
     K23U03E KC2023 10 20.92636600 36 50.911+43 26 27.67         18.9 GVEU151J95
     K23U03E KC2023 10 20.92788000 37 00.427+43 27 08.06         18.6 GVEU151J95
     K23U03E 1C2023 10 20.97144 00 40 41.72 +43 44 56.1          18.9 GVEU151C40
     K23U03E 1C2023 10 20.97624 00 41 12.78 +43 46 43.7          18.9 GVEU151C40
     K23U03E 1C2023 10 20.98105 00 41 44.07 +43 48 31.7          18.9 GVEU151C40
     K23U03E 1C2023 10 21.01733 00 45 45.15 +44 01 36.1          18.7 GVEU151C40
     K23U03E 1C2023 10 21.02215 00 46 17.49 +44 03 16.2          18.6 GVEU151C40
     K23U03E 1C2023 10 21.02697 00 46 50.29 +44 04 58.6          18.8 GVEU151C40

Observer details:
654 Table Mountain Observatory, Wrightwood-PHMC.  Observers N. Evans, P. Choi,
    N. Saini, C. Zhai, R. Trahan, M. Shao.  1.0-m Reflector + CCD.
734 Farpoint Observatory, Eskridge.  Observers D. Cromer, G. Hug, D. Goodin,
    R. Valentine.  Measurer D. Cromer.  0.69-m f/3.54 reflector + CCD.
858 Tebbutt Observatory, Edgewood.  Observer F. B. Zoltowski.  0.51-m f/8.1
    Schmidt-Cassegrain + CCD.
C40 Kuban State University Astrophysical Observatory.  Observers A. Ivanov, A.
    Barcov, V. Ivanov, V. Lysenko, N. Yakovenko, N. Ivanova, N. Gorbunov, G.
    Kurbatov, P. Shchukin, V. Roshchupko.  Measurer A. Ivanov.  0.51-m f/8
    reflector + CCD.
I52 Steward Observatory, Mt. Lemmon Station.  Observer J. B. Fazekas.
    Measurers E. C. Beshore, D. Fay, J. B. Fazekas, D. C. Fuls, A. R. Gibbs,
    A. D. Grauer, H. Groeller, J. K. Hogan, R. A. Kowalski, S. M. Larson, G.
    J. Leonard, D. Rankin, R. L. Seaman, F. C. Shelly, K. W. Wierzchos.  1.0-m
    prime focus + CCD.
J95 Great Shefford.  Observer P. Birtwhistle.  0.41-m f/6.3 Schmidt-Cassegrain
    + CCD.
L51 MARGO, Nauchnyi.  Observer G. Borisov.  0.50-m f/1.9 reflector + CCD.

Orbital elements:
2023 UE3                                                 Earth MOID = 0.0040 AU
Epoch 2023 Sept. 13.0 TT = JDT 2460200.5                Veres                   
M 334.51608              (2000.0)            P               Q                  
n   0.54797956     Peri.  184.34383     +0.80217854     -0.59663907             
a   1.4789715      Node   212.32114     +0.54910488     +0.75233210             
e   0.3253281      Incl.    2.47111     +0.23450675     +0.27931745             
P   1.80           H   28.49          G   0.15           U   7                  
Residuals in seconds of arc
231019 L51  0.2+  0.0     231020 734  0.5+  0.3+    231020 J95  0.3-  0.5-
231019 L51  0.1+  0.2+    231020 858  0.2+  0.2+    231020 J95  0.2+  0.4-
231019 L51  0.1+  0.0     231020 734  0.3+  0.2-    231020 C40  0.4+  0.5+
231019 L51  0.4+  0.4-    231020 734  0.2+  0.0     231020 C40  0.8-  0.2+
231019 L51  0.3+  0.2-    231020 858  0.2+  0.1+    231020 C40  1.6-  0.8+
231019 L51  0.7+  0.1+    231020 858  0.2+  0.1+    231021 C40  1.6+  0.2+
231020 I52  0.3-  0.2+    231020 654  0.1-  0.1-    231021 C40  0.8-  0.7-
231020 I52  0.1+  0.2-    231020 654  0.1-  0.1-    231021 C40  0.2+  1.4+
231020 I52  0.2+  0.0     231020 J95  0.3+  0.3+
231020 I52  0.5-  0.0     231020 J95  0.2+  0.2-

Ephemeris:
2023 UE3                 a,e,i = 1.48, 0.33, 2                   q = 0.9978
Date    TT    R. A. (2000) Decl.     Delta      r    Elong.  Phase     V
2023 09 21    20 54 50.6 +03 21 55   0.08216 1.0648   135.9    41.1    24.8
...
2023 10 06    20 55 43.7 +06 27 27   0.04257 1.0238   123.0    55.0    23.7
...
2023 10 14    21 16 11.7 +12 32 50   0.02183 1.0093   121.4    57.6    22.3
...
2023 10 20    23 16 51.8 +35 51 51   0.0079931.0021   139.2    40.5    19.6
2023 10 21    00 44 55.6 +44 00 17   0.0067061.0012   144.3    35.4    19.1
2023 10 22    03 00 05.5 +46 36 21   0.0063601.0004   140.7    39.1    19.1
...
2023 10 28    07 33 02.8 +13 44 04   0.01772 0.9973   101.1    77.9    22.4
...
2023 11 05    08 05 17.9 +05 19 56   0.03807 0.9986    99.3    78.5    24.1
...
2023 11 20    08 14 26.8 +01 54 53   0.07501 1.0170   110.6    65.5    25.2

M. P. C. Staff               (C) Copyright 2023 MPC           M.P.E.C. 2023-U151





More information about the Iaude mailing list